Weather History for KNBT - August, 2012

Change the Weather History Date:

Tuesday, August 21, 2012

  Actual Average (KMRH) Record (KMRH)
Temperature  
Mean Temperature 78 °F -  
Max Temperature 80 °F 87 °F 98 °F (1983)
Min Temperature 77 °F 71 °F 64 °F (1977)
Cooling Degree Days 13    
Growing Degree Days 28 (Base 50)    
Moisture  
Dew Point 71 °F    
Average Humidity 79    
Maximum Humidity 87    
Minimum Humidity 66    
Precipitation  
Precipitation 0.20 in - - ()
Sea Level Pressure  
Sea Level Pressure 30.02 in    
Wind  
Wind Speed 3 mph (East)    
Max Wind Speed 9 mph    
Max Gust Speed -    
Visibility 9 miles    
Events Rain    
Averages and records for this station are not official NWS values.
T = Trace of Precipitation, MM = Missing Value Source: NWS Daily Summary

Daily Weather History Graph

Daily Weather History Graph

Search for Another Location

Airport or City:

Trip Planner

Search our weather history database for the weather conditions in past years. The results will help you decide how hot, cold, wet, or windy it might be!

Date:

Astronomy

Aug. 21, 2012 Rise Set
Actual Time 6:30 AM EDT 7:46 PM EDT
Civil Twilight 6:04 AM EDT 8:12 PM EDT
Nautical Twilight 5:32 AM EDT 8:44 PM EDT
Astronomical Twilight 4:59 AM EDT 9:16 PM EDT
Moon 10:45 AM EDT (8/21) 9:59 PM EDT (8/21)
Length of Visible Light 14h 08m
Length of Day
13h 15m
Waxing Crescent, 19% of the Moon is Illuminated
Aug 21
Waxing Crescent
Aug 24
First Quarter
Aug 31
Full
Sep 8
Last Quarter
Sep 15
New

Hourly Weather History & Observations

Time (EDT) Temp. Dew Point Humidity Pressure Visibility Wind Dir Wind Speed Gust Speed Precip Events Conditions
12:56 AM 78.1 °F 73.9 °F 87% 29.98 in 10.0 mi Calm Calm - 0.00 in Rain Light Rain
1:56 AM 79.0 °F 73.9 °F 84% 29.99 in 10.0 mi Calm Calm - 0.00 in   Partly Cloudy
2:56 AM 78.1 °F 73.9 °F 87% 29.98 in 10.0 mi Calm Calm - N/A   Mostly Cloudy
3:56 AM 78.1 °F 73.0 °F 84% 29.98 in 10.0 mi East 3.5 mph - N/A   Clear
4:56 AM 79.0 °F 72.0 °F 79% 29.98 in 10.0 mi North 3.5 mph - 0.00 in   Partly Cloudy
5:56 AM 79.0 °F 71.1 °F 77% 29.99 in 10.0 mi Calm Calm - 0.00 in   Partly Cloudy
6:56 AM 78.1 °F 73.0 °F 84% 30.00 in 10.0 mi SSW 3.5 mph - 0.00 in   Mostly Cloudy
7:56 AM 78.1 °F 73.9 °F 87% 30.01 in 8.0 mi SSE 3.5 mph - 0.05 in   Overcast
8:56 AM 78.1 °F 72.0 °F 81% 30.01 in 9.0 mi East 4.6 mph - 0.01 in Rain Light Rain
9:56 AM 79.0 °F 73.0 °F 82% 30.03 in 9.0 mi ENE 3.5 mph - 0.00 in Rain Light Rain
10:43 AM 78.8 °F 71.6 °F 78% 30.03 in 6.0 mi ENE 6.9 mph - 0.06 in Rain Light Rain
10:56 AM 78.1 °F 73.0 °F 84% 30.05 in 7.0 mi East 6.9 mph - 0.07 in Rain Light Rain
11:56 AM 78.1 °F 72.0 °F 81% 30.04 in 8.0 mi ENE 6.9 mph - 0.03 in Rain Light Rain
12:56 PM 78.1 °F 72.0 °F 81% 30.05 in 7.0 mi SE 6.9 mph - 0.02 in Rain Light Rain
1:56 PM 77.0 °F 72.0 °F 84% 30.05 in 8.0 mi SSE 9.2 mph - 0.02 in Rain Light Rain
2:52 PM 77.0 °F 71.6 °F 83% 30.01 in 10.0 mi SE 4.6 mph - 0.00 in   Overcast
2:56 PM 78.1 °F 72.0 °F 81% 30.03 in 10.0 mi Variable 3.5 mph - 0.00 in   Overcast
3:28 PM 78.8 °F 71.6 °F 78% 30.01 in 10.0 mi East 4.6 mph - 0.00 in   Scattered Clouds
3:56 PM 78.1 °F 71.1 °F 79% 30.03 in 10.0 mi East 3.5 mph - 0.00 in   Partly Cloudy
4:23 PM 78.8 °F 71.6 °F 78% 30.01 in 10.0 mi East 4.6 mph - N/A   Mostly Cloudy
4:37 PM 78.8 °F 71.6 °F 78% 30.01 in 10.0 mi East 4.6 mph - N/A   Scattered Clouds
4:56 PM 79.0 °F 70.0 °F 74% 30.02 in 10.0 mi ENE 5.8 mph - N/A   Partly Cloudy
5:56 PM 79.0 °F 70.0 °F 74% 30.03 in 10.0 mi ENE 6.9 mph - N/A   Scattered Clouds
6:56 PM 79.0 °F 69.1 °F 72% 30.04 in 10.0 mi East 6.9 mph - N/A   Partly Cloudy
7:56 PM 78.1 °F 69.1 °F 74% 30.05 in 10.0 mi ESE 5.8 mph - N/A   Clear
8:56 PM 79.0 °F 66.9 °F 66% 30.06 in 10.0 mi East 8.1 mph - N/A   Clear
9:56 PM 79.0 °F 66.9 °F 66% 30.07 in 10.0 mi ENE 8.1 mph - N/A   Clear
10:56 PM 79.0 °F 68.0 °F 69% 30.07 in 10.0 mi ENE 5.8 mph - N/A   Clear
11:56 PM 78.1 °F 69.1 °F 74% 30.09 in 10.0 mi NNE 3.5 mph - N/A   Clear